Tracking 29487 objects as of 11-Sep-2024
HD Live streaming from Space Station
objects crossing your sky now

FENGYUN 1C DEB

Track FENGYUN 1C DEB now!
10-day predictions


NORAD ID: 37474
Int'l Code: 1999-025EJU
Perigee: 582.8 km
Apogee: 819.2 km
Inclination: 99.2 °
Period: 98.6 minutes
Semi major axis: 7071 km
RCS: 0.0095 m2 (small)
Launch date: May 10, 1999
Source: People's Republic of China (PRC)
Launch site: Taiyaun Space Center, China (TSC)

Note: This is SATELLITE DEBRIS
Your satellite tracking list
Your tracking list is empty




NASA's NSSDC Master Catalog

Two Line Element Set (TLE):
1 37474U 99025EJU 24253.22807096  .00040204  00000-0  68927-2 0  9994
2 37474  99.1611  36.7997 0167133 108.3601 253.5853 14.59787561556319
Source of the keplerian elements: AFSPC